Location: Ostrava
(49.8330°N, 18.2830°E)
Time: 23:02:42
(UTC+02:00)

NOAA 19 - Visible Passes

Search period start: 19 April 2015 00:00
Search period end: 29 April 2015 00:00
Orbit: 843 x 863 km, 99.0° (Epoch: 19 April)

Date Brightness Start Highest point End Pass type
(mag) Time Alt. Az. Time Alt. Az. Time Alt. Az.
19 Apr 6.8 02:24:43 10° NE 02:29:26 28° E 02:32:08 20° SE visible
19 Apr 5.5 04:05:05 10° N 04:10:29 53° WNW 04:14:11 20° SW visible
20 Apr 7.0 02:13:45 10° NE 02:18:05 23° E 02:20:53 17° SE visible
20 Apr 5.3 03:53:48 10° N 03:59:19 64° WNW 04:02:56 22° SW visible
21 Apr 7.3 02:02:54 10° NE 02:06:42 19° E 02:09:38 14° SE visible
21 Apr 5.2 03:42:33 10° NNE 03:48:08 77° WNW 03:51:41 23° SSW visible
22 Apr 7.5 01:52:09 10° NE 01:55:18 16° E 01:58:23 11° ESE visible
22 Apr 5.2 03:31:18 10° NNE 03:36:55 89° E 03:40:26 24° SSW visible
23 Apr 7.6 01:41:43 10° ENE 01:43:52 12° E 01:46:19 10° ESE visible
23 Apr 5.3 03:20:06 10° NNE 03:25:41 74° ESE 03:29:11 24° S visible
23 Apr 6.6 05:01:40 10° N 05:05:57 23° WNW 05:10:06 10° WSW visible
24 Apr 5.6 03:08:55 10° NNE 03:14:27 61° ESE 03:17:56 23° S visible
24 Apr 6.4 04:50:15 10° N 04:54:51 27° WNW 04:59:21 10° WSW visible
25 Apr 5.9 02:57:46 10° NNE 03:03:11 50° E 03:06:40 22° SSE visible
25 Apr 6.2 04:38:52 10° N 04:43:44 31° WNW 04:48:32 10° WSW visible
26 Apr 6.2 02:46:39 10° NNE 02:51:53 41° E 02:55:25 20° SSE visible
26 Apr 6.0 04:27:30 10° N 04:32:37 37° WNW 04:37:28 11° SW visible
27 Apr 6.5 02:35:34 10° NNE 02:40:35 34° E 02:44:09 17° SSE visible
27 Apr 5.8 04:16:11 10° N 04:21:28 44° WNW 04:26:11 13° SW visible
28 Apr 6.8 02:24:32 10° NE 02:29:14 28° E 02:32:53 15° SE visible
28 Apr 5.5 04:04:53 10° N 04:10:18 53° WNW 04:14:56 14° SW visible
